Statesville, NC

11:06 AM EDT on April 22, 2018 (GMT -0400)
Statesville Municipal

Weather History for KSVH - March, 2013

Change the Weather History Date:

Thursday, March 21, 2013

  Actual Average (KHKY) Record (KHKY)
Temperature  
Mean Temperature 36 °F -  
Max Temperature 43 °F 62 °F 84 °F (2017)
Min Temperature 28 °F 40 °F 19 °F (1965)
Degree Days  
Heating Degree Days 30    
Moisture  
Dew Point 12 °F    
Average Humidity 39    
Maximum Humidity 56    
Minimum Humidity 28    
Precipitation  
Precipitation 0.00 in - - ()
Sea Level Pressure  
Sea Level Pressure 29.85 in    
Wind  
Wind Speed 8 mph (WNW)    
Max Wind Speed 18 mph    
Max Gust Speed 26 mph    
Visibility 10 miles    
Events      
Averages and records for this station are not official NWS values.
T = Trace of Precipitation, MM = Missing Value Source: NWS Daily Summary

Daily Weather History Graph

Daily Weather History Graph

Search for Another Location

Airport or City:

Astronomy

Mar. 21, 2013 Rise Set
Actual Time 7:25 AM EDT 7:36 PM EDT
Civil Twilight 7:00 AM EDT 8:02 PM EDT
Nautical Twilight 6:30 AM EDT 8:32 PM EDT
Astronomical Twilight 6:00 AM EDT 9:02 PM EDT
Moon 2:14 PM EDT (3/21) 3:36 AM EDT (3/21)
Length of Visible Light 13h 01m
Length of Day
12h 10m
Waxing Gibbous, 68% of the Moon is Illuminated
Mar 21
Waxing Gibbous
Mar 27
Full
Apr 3
Last Quarter
Apr 10
New
Apr 18
First Quarter

Hourly Weather History & Observations

Time (EDT) Temp. Windchill Dew Point Humidity Pressure Visibility Wind Dir Wind Speed Gust Speed Precip Events Conditions
12:15 AM 43.0 °F 39.5 °F 17.8 °F 36% 29.79 in 10.0 mi WNW 5.8 mph - N/A   Scattered Clouds
12:35 AM 41.7 °F 35.6 °F 19.8 °F 41% 29.80 in 10.0 mi WNW 10.4 mph - N/A   Scattered Clouds
12:55 AM 41.4 °F 34.3 °F 22.8 °F 48% 29.81 in 10.0 mi WNW 12.7 mph 20.7 mph N/A   Scattered Clouds
1:15 AM 40.1 °F 32.4 °F 25.3 °F 56% 29.81 in 10.0 mi WNW 13.8 mph 26.5 mph N/A   Clear
1:35 AM 39.2 °F 34.2 °F 24.6 °F 56% 29.81 in 10.0 mi NW 6.9 mph 17.3 mph N/A   Clear
2:15 AM 36.7 °F 31.2 °F 21.4 °F 54% 29.81 in 10.0 mi NW 6.9 mph - N/A   Scattered Clouds
2:35 AM 36.0 °F 30.3 °F 20.1 °F 53% 29.81 in 10.0 mi WNW 6.9 mph - N/A   Mostly Cloudy
2:55 AM 35.6 °F 30.7 °F 16.7 °F 46% 29.80 in 10.0 mi WNW 5.8 mph - N/A   Scattered Clouds
3:15 AM 34.7 °F 30.6 °F 16.2 °F 47% 29.80 in 10.0 mi WNW 4.6 mph - N/A   Clear
3:35 AM 34.9 °F 29.9 °F 16.9 °F 48% 29.80 in 10.0 mi NW 5.8 mph - N/A   Clear
3:55 AM 33.4 °F 28.1 °F 13.6 °F 44% 29.79 in 10.0 mi WNW 5.8 mph - N/A   Clear
4:15 AM 33.8 °F 28.6 °F 10.8 °F 38% 29.79 in 10.0 mi NW 5.8 mph - N/A   Clear
4:35 AM 32.0 °F 24.2 °F 11.3 °F 42% 29.79 in 10.0 mi WNW 9.2 mph - N/A   Clear
4:55 AM 32.0 °F 26.4 °F 10.2 °F 40% 29.79 in 10.0 mi WNW 5.8 mph - N/A   Clear
5:15 AM 32.0 °F 25.6 °F 9.5 °F 39% 29.79 in 10.0 mi WNW 6.9 mph - N/A   Clear
5:35 AM 32.0 °F 27.5 °F 9.1 °F 38% 29.79 in 10.0 mi NW 4.6 mph - N/A   Clear
5:55 AM 30.6 °F 23.1 °F 11.7 °F 45% 29.79 in 10.0 mi West 8.1 mph - N/A   Clear
6:15 AM 29.8 °F 23.9 °F 12.0 °F 48% 29.81 in 10.0 mi West 5.8 mph - N/A   Clear
6:35 AM 29.1 °F 24.1 °F 11.8 °F 49% 29.81 in 10.0 mi West 4.6 mph - N/A   Clear
6:55 AM 29.8 °F 26.3 °F 11.1 °F 46% 29.81 in 10.0 mi WNW 3.5 mph - N/A   Clear
7:15 AM 28.2 °F 22.0 °F 12.2 °F 51% 29.82 in 10.0 mi West 5.8 mph - N/A   Clear
7:35 AM 28.0 °F 24.2 °F 11.8 °F 51% 29.83 in 10.0 mi WSW 3.5 mph - N/A   Clear
7:55 AM 28.8 °F 21.7 °F 12.2 °F 50% 29.84 in 10.0 mi West 6.9 mph - N/A   Clear
8:15 AM 30.0 °F 23.2 °F 12.4 °F 48% 29.84 in 10.0 mi West 6.9 mph - N/A   Clear
8:35 AM 30.9 °F 26.2 °F 12.9 °F 47% 29.84 in 10.0 mi West 4.6 mph - N/A   Clear
8:55 AM 32.0 °F 23.6 °F 13.3 °F 46% 29.84 in 10.0 mi WNW 10.4 mph - N/A   Clear
9:15 AM 32.4 °F 24.0 °F 13.1 °F 45% 29.85 in 10.0 mi NW 10.4 mph - N/A   Clear
9:35 AM 33.6 °F 27.5 °F 14.5 °F 46% 29.85 in 10.0 mi NW 6.9 mph - N/A   Clear
9:55 AM 34.2 °F 27.5 °F 14.5 °F 45% 29.86 in 10.0 mi WNW 8.1 mph - N/A   Clear
10:15 AM 34.5 °F 30.4 °F 14.0 °F 43% 29.86 in 10.0 mi West 4.6 mph - N/A   Clear
10:35 AM 35.4 °F 28.4 °F 11.8 °F 38% 29.86 in 10.0 mi NW 9.2 mph 16.1 mph N/A   Clear
10:55 AM 35.6 °F 28.0 °F 10.9 °F 36% 29.86 in 10.0 mi NW 10.4 mph 16.1 mph N/A   Clear
11:15 AM 36.0 °F 30.3 °F 12.0 °F 37% 29.85 in 10.0 mi WNW 6.9 mph 18.4 mph N/A   Clear
11:35 AM 37.6 °F 29.6 °F 12.9 °F 36% 29.85 in 10.0 mi WNW 12.7 mph 17.3 mph N/A   Clear
11:55 AM 37.2 °F 30.6 °F 11.8 °F 35% 29.84 in 10.0 mi West 9.2 mph 19.6 mph N/A   Clear
12:15 PM 38.5 °F 29.6 °F 11.7 °F 33% 29.84 in 10.0 mi WSW 16.1 mph 23.0 mph N/A   Clear
12:35 PM 39.2 °F 32.0 °F 11.5 °F 32% 29.85 in 10.0 mi West 11.5 mph 18.4 mph N/A   Clear
12:55 PM 39.9 °F 32.1 °F 11.5 °F 31% 29.85 in 10.0 mi NW 13.8 mph 18.4 mph N/A   Clear
1:15 PM 39.7 °F 31.9 °F 10.4 °F 30% 29.85 in 10.0 mi West 13.8 mph 26.5 mph N/A   Clear
1:35 PM 40.3 °F 33.9 °F 10.4 °F 29% 29.85 in 10.0 mi WNW 10.4 mph 20.7 mph N/A   Clear
1:55 PM 41.2 °F 33.7 °F 12.0 °F 30% 29.84 in 10.0 mi West 13.8 mph 21.9 mph N/A   Clear
2:15 PM 41.7 °F 33.7 °F 11.8 °F 30% 29.83 in 10.0 mi WNW 16.1 mph 21.9 mph N/A   Clear
2:35 PM 41.5 °F 34.6 °F 11.5 °F 29% 29.83 in 10.0 mi NW 12.7 mph 23.0 mph N/A   Clear
2:55 PM 41.7 °F 35.2 °F 12.0 °F 30% 29.83 in 10.0 mi WNW 11.5 mph 20.7 mph N/A   Clear
3:15 PM 42.6 °F 35.6 °F 12.6 °F 30% 29.83 in 10.0 mi West 13.8 mph 23.0 mph N/A   Clear
3:35 PM 41.9 °F 37.5 °F 12.2 °F 30% 29.83 in 10.0 mi NW 6.9 mph 19.6 mph N/A   Clear
4:15 PM 41.2 °F 34.5 °F 9.9 °F 28% 29.84 in 10.0 mi NNW 11.5 mph 24.2 mph N/A   Clear
4:35 PM 40.6 °F 31.7 °F 10.2 °F 29% 29.84 in 10.0 mi NNW 18.4 mph 23.0 mph N/A   Clear
4:55 PM 40.5 °F 32.5 °F 10.8 °F 30% 29.85 in 10.0 mi NW 15.0 mph 23.0 mph N/A   Clear
5:15 PM 39.7 °F 34.3 °F 9.7 °F 29% 29.85 in 10.0 mi NW 8.1 mph 23.0 mph N/A   Clear
5:35 PM 40.1 °F 32.7 °F 10.0 °F 29% 29.86 in 10.0 mi NW 12.7 mph 18.4 mph N/A   Clear
5:55 PM 39.4 °F 31.1 °F 10.0 °F 30% 29.86 in 10.0 mi WNW 15.0 mph 20.7 mph N/A   Clear
6:15 PM 39.2 °F 32.5 °F 9.9 °F 30% 29.86 in 10.0 mi WNW 10.4 mph 18.4 mph N/A   Clear
6:35 PM 38.8 °F 32.1 °F 10.8 °F 32% 29.87 in 10.0 mi WNW 10.4 mph - N/A   Clear
6:55 PM 37.9 °F 31.5 °F 9.9 °F 31% 29.87 in 10.0 mi WNW 9.2 mph - N/A   Clear
7:15 PM 36.9 °F 30.7 °F 10.0 °F 33% 29.88 in 10.0 mi WNW 8.1 mph - N/A   Clear
7:35 PM 35.8 °F 31.9 °F 9.0 °F 33% 29.89 in 10.0 mi NW 4.6 mph - N/A   Clear
7:55 PM 35.6 °F 31.7 °F 8.4 °F 32% 29.90 in 10.0 mi NNW 4.6 mph - N/A   Clear
8:15 PM 34.2 °F 30.0 °F 9.3 °F 36% 29.90 in 10.0 mi WNW 4.6 mph - N/A   Clear
8:35 PM 34.5 °F 31.6 °F 8.4 °F 34% 29.91 in 10.0 mi North 3.5 mph - N/A   Clear
8:55 PM 33.6 °F 30.6 °F 9.1 °F 36% 29.92 in 10.0 mi NW 3.5 mph - N/A   Clear
9:15 PM 32.9 °F 29.8 °F 8.6 °F 36% 29.92 in 10.0 mi NW 3.5 mph - N/A   Clear
9:35 PM 32.5 °F - 9.3 °F 38% 29.93 in 10.0 mi Calm Calm - N/A   Clear
9:55 PM 29.5 °F 25.9 °F 10.2 °F 45% 29.94 in 10.0 mi North 3.5 mph - N/A   Clear
10:15 PM 31.3 °F - 11.5 °F 44% 29.94 in 10.0 mi Calm Calm - N/A   Clear
10:35 PM 30.6 °F 27.1 °F 11.3 °F 45% 29.94 in 10.0 mi North 3.5 mph - N/A   Clear
10:55 PM 30.2 °F 25.4 °F 11.8 °F 47% 29.96 in 10.0 mi ENE 4.6 mph - N/A   Clear
11:15 PM 30.6 °F 23.8 °F 10.4 °F 43% 29.95 in 10.0 mi North 6.9 mph - N/A   Clear
11:35 PM 29.3 °F 22.3 °F 10.9 °F 46% 29.97 in 10.0 mi NNE 6.9 mph - N/A   Clear
11:55 PM 29.7 °F 24.7 °F 10.6 °F 45% 29.98 in 10.0 mi NE 4.6 mph - N/A   Clear